Location: Unspecified
(0.0000°N, 0.0000°E)
Time: 19:40:35
(UTC+00:00)

Hubble Space Telescope - Pass Details

Date: 26 April 2018
Orbit: 537 x 540 km, 28.5° (Epoch: 11 November)

Event Time Altitude Azimuth Distance (km) Brightness Sun altitude
Exits shadow 05:10:28 17° 264° (W) 1,419 2.3 -11.5°
Maximum altitude 05:13:03 31° 210° (SSW) 946 1.7 -10.9°
Drops below altitude 10° 05:16:45 10° 146° (SE) 1,786 3.7 -10.0°
Sets 05:19:11 0° 136° (SE) 2,677 4.8 -9.4°
